Back to catalog

COSMOS 1691 DEB

AlivePO
NORAD 18282·DEBRIS·🇷🇺 Russia

Launched Oct 9, 1985 from Plesetsk Cosmodrome

Loading…

Next Passes (next 24 hours)

TLE

FreshSource: Space-Track

Epoch: Sep 14, 2026, 02:10 UTC

1 18282U 85094T   26257.09078622  .00000532  00000-0  23248-2 0  9994
2 18282  82.6214 114.2802 0022018 306.7077 208.6943 12.78868392897489

Track COSMOS 1691 DEB in real time with AllMySat

Download on the App Store